Regional Weather Roundup
Issued by NWS Kansas City/Pleasant Hill, MO

Home | Current Version | Previous Version | Text Only | Print | Product List | Glossary On
Versions: 1 2 3 4 5 6 7 8 9 10 11 12 13 14 15 16 17 18 19 20 21 22 23 24 25 26 27 28 29 30 31 32 33 34 35 36 37 38 39 40 41 42 43 44 45 46 47 48 49 50
997
ASUS43 KEAX 211010
RWREAX

WEATHER ROUNDUP FOR EASTERN KANSAS AND NORTHWEST MISSOURI
NATIONAL WEATHER SERVICE KANSAS CITY/PLEASANT HILL MO
400 AM CST SUN JAN 21 2018

KSZ040-057-103>105-MOZ028-029-037-043-211100-
...KANSAS CITY METROPOLITAN AREA...

CITY           SKY/WX    TMP DP  RH WIND       PRES   REMARKS
K.C. INTL      CLOUDY    44  43  96 SE8       29.80F
K.C. DOWNTOWN  CLOUDY    44  40  85 E7        29.81F
LEES SUMMIT    CLOUDY    48  47  96 S8        29.82F
OLATHE - IXD   CLOUDY    51  50  96 SE13      29.79F
OLATHE - OJC   CLOUDY    46  45  96 SE9       29.80F
LAWRENCE       CLOUDY    48  47  96 E9        29.78F

$$

MOZ001>008-011>017-020>025-030>033-038>040-044>046-053-054-211100-
...NORTHERN AND CENTRAL MISSOURI...

CITY           SKY/WX    TMP DP  RH WIND       PRES   REMARKS
ST. JOSEPH     CLOUDY    43  43 100 E5        29.81F FOG
MOSBY          CLOUDY    43  43 100 SE3       29.82F
WARRENSBURG    CLOUDY    48  45  87 SE6       29.85S
WHITEMAN AFB   CLOUDY    49  46  89 S7        29.82S
CLINTON        CLOUDY    50  46  87 S7        29.87S
SEDALIA        CLOUDY    50  49  96 S10       29.87F
WARSAW         NOT AVBL
CHILLICOTHE      N/A     47  42  83 CALM      29.86F
KIRKSVILLE     CLOUDY    45  44  97 S6        29.88S

$$

MOZ041-047>049-056>058-063>065-088>090-097-211100-
...EASTERN AND SOUTHERN MISSOURI...

CITY           SKY/WX    TMP DP  RH WIND       PRES   REMARKS
ST. LOUIS INTL MOCLDY    46  45  96 S9        29.96F
SPIRIT OF STL  CLOUDY    38  38 100 CALM      29.95F
COLUMBIA       CLEAR     46  45  96 SE8       29.90F
JEFFERSON CITY CLEAR     36  35  96 SE5       29.91S WCI  32
ROLLA          CLEAR     48  48 100 S9        29.92F
OSAGE BEACH    CLEAR     46  46 100 SE5       29.90F
SPRINGFIELD    CLEAR     50  48  93 S12       29.87F
BRANSON        CLEAR     55  50  82 S5        29.92S
JOPLIN         PTCLDY    54  52  93 S16       29.84F
WEST PLAINS    FOG       51  50  96 SE3       29.97R VSB 1

$$

IAZ060-094-KSZ022-034>040-054-083-096-NEZ052-066-093-211100-
...KANSAS...SOUTHEAST NEBRASKA AND IOWA...

CITY           SKY/WX    TMP DP  RH WIND       PRES   REMARKS
TOPEKA         CLOUDY    44  44 100 E6        29.76F FOG
MANHATTAN      FOG       42  41  96 N5        29.73F VSB 1/2
EMPORIA        CLOUDY    53  50  89 S20G28    29.72F
CHANUTE        MOCLDY    55  52  89 S16       29.79F
WICHITA        CLOUDY    51  49  92 S12       29.69S
OMAHA          CLOUDY    37  34  89 N7        29.84F WCI  32
LINCOLN        CLOUDY    40  36  86 NE10      29.81F WCI  33
FALLS CITY     CLOUDY    40  39  97 E7        29.79F FOG
LAMONI         CLOUDY    43  40  89 E6        29.83F
DES MOINES     DRIZZLE   40  36  86 NE7       29.87S FOG

$$





USA.gov is the U.S. government's official web portal to all federal, state and local government web resources and services.